Weather History for Dallas/Ft Worth, TX

Change the Weather History Date:

Monday, May 19, 2014

  Actual Average Record
Temperature  
Mean Temperature 77 °F 75 °F  
Max Temperature 88 °F 84 °F 99 °F (2008)
Min Temperature 66 °F 65 °F 50 °F (2002)
Degree Days  
Heating Degree Days 0 0  
Month to date heating degree days 9 6  
Since 1 July heating degree days 2603 2282  
Cooling Degree Days 12 10  
Month to date cooling degree days 152 145  
Year to date cooling degree days 319 283  
Growing Degree Days 27 (Base 50)    
Moisture  
Dew Point 59 °F    
Average Humidity 60    
Maximum Humidity 81    
Minimum Humidity 39    
Precipitation  
Precipitation 0.00 in 0.16 in 2.25 in (1955)
Month to date precipitation 1.23 3.04  
Year to date precipitation 5.16 14.39  
Sea Level Pressure  
Sea Level Pressure 29.94 in    
Wind  
Wind Speed 22 mph (South)    
Max Wind Speed 31 mph    
Max Gust Speed 38 mph    
Visibility 10 miles    
Events      
T = Trace of Precipitation, MM = Missing Value Source: NWS Daily Summary

Daily Weather History Graph

Daily Weather History Graph

Search for Another Location

Airport:

Trip Planner

Search our weather history database for the weather conditions in past years. The results will help you decide how hot, cold, wet, or windy it might be!

Date:

Astronomy

May. 19, 2014 Rise Set
Actual Time 6:26 AM CDT 8:23 PM CDT
Civil Twilight 5:58 AM CDT 8:50 PM CDT
Nautical Twilight 5:25 AM CDT 9:24 PM CDT
Astronomical Twilight 4:50 AM CDT 9:59 PM CDT
Moon 12:15 AM CDT (5/19) 11:20 AM CDT (5/19)
Length of Visible Light 14h 51m
Length of Day
13h 56m
Waning Gibbous, 71% of the Moon is Illuminated
May 19
Waning Gibbous
May 21
Last Quarter
May 28
New
Jun 5
First Quarter
Jun 12
Full

Hourly Weather History & Observations

Time (CDT) Temp. Heat Index Dew Point Humidity Pressure Visibility Wind Dir Wind Speed Gust Speed Precip Events Conditions
12:53 AM 73.0 °F - 57.9 °F 59% 29.95 in 10.0 mi South 16.1 mph 24.2 mph N/A   Mostly Cloudy
1:53 AM 72.0 °F - 57.9 °F 61% 29.96 in 10.0 mi South 15.0 mph - N/A   Mostly Cloudy
2:53 AM 70.0 °F - 57.9 °F 65% 29.95 in 10.0 mi South 16.1 mph 25.3 mph N/A   Mostly Cloudy
3:53 AM 69.1 °F - 57.9 °F 68% 29.94 in 10.0 mi South 16.1 mph 25.3 mph N/A   Mostly Cloudy
4:53 AM 66.9 °F - 57.9 °F 73% 29.96 in 10.0 mi South 10.4 mph - N/A   Mostly Cloudy
5:53 AM 66.0 °F - 60.1 °F 81% 29.95 in 10.0 mi South 18.4 mph 25.3 mph N/A   Mostly Cloudy
6:53 AM 66.0 °F - 60.1 °F 81% 29.96 in 10.0 mi South 16.1 mph - N/A   Mostly Cloudy
7:18 AM 66.9 °F - 60.1 °F 79% 30.00 in 10.0 mi South 18.4 mph 25.3 mph N/A   Mostly Cloudy
9:53 AM 73.0 °F - 57.9 °F 59% 30.00 in 10.0 mi South 26.5 mph 34.5 mph N/A   Mostly Cloudy
10:38 AM 75.9 °F - 59.0 °F 56% 30.01 in 10.0 mi South 28.8 mph 35.7 mph N/A   Mostly Cloudy
10:53 AM 75.9 °F - 59.0 °F 56% 29.99 in 10.0 mi South 31.1 mph 36.8 mph N/A   Mostly Cloudy
11:53 AM 79.0 °F - 59.0 °F 50% 29.97 in 10.0 mi South 28.8 mph 33.4 mph N/A   Scattered Clouds
12:53 PM 82.4 °F 82.5 °F 59.0 °F 45% 29.97 in 10.0 mi SSE 23.0 mph 31.1 mph N/A   Scattered Clouds
1:53 PM 84.9 °F 84.4 °F 59.0 °F 41% 29.94 in 10.0 mi South 21.9 mph 33.4 mph N/A   Scattered Clouds
2:53 PM 86.0 °F 85.4 °F 59.0 °F 40% 29.92 in 10.0 mi SSE 25.3 mph 35.7 mph N/A   Scattered Clouds
3:53 PM 86.0 °F 85.7 °F 60.1 °F 41% 29.90 in 10.0 mi South 26.5 mph 34.5 mph N/A   Partly Cloudy
4:53 PM 87.1 °F 86.5 °F 59.0 °F 39% 29.88 in 10.0 mi South 21.9 mph 32.2 mph N/A   Partly Cloudy
5:53 PM 86.0 °F 85.4 °F 59.0 °F 40% 29.88 in 10.0 mi South 28.8 mph 34.5 mph N/A   Scattered Clouds
6:53 PM 84.0 °F 84.0 °F 60.1 °F 44% 29.88 in 10.0 mi South 20.7 mph 29.9 mph N/A   Mostly Cloudy
7:53 PM 82.0 °F 82.7 °F 61.0 °F 49% 29.88 in 10.0 mi South 20.7 mph 27.6 mph N/A   Overcast
8:53 PM 80.1 °F 80.9 °F 60.1 °F 50% 29.88 in 10.0 mi SSE 18.4 mph 31.1 mph N/A   Overcast
9:53 PM 79.0 °F - 60.1 °F 52% 29.89 in 10.0 mi South 23.0 mph 32.2 mph N/A   Overcast
10:53 PM 77.0 °F - 60.1 °F 56% 29.91 in 10.0 mi South 24.2 mph 32.2 mph N/A   Overcast
11:53 PM 75.9 °F - 60.1 °F 58% 29.91 in 10.0 mi South 24.2 mph 29.9 mph N/A   Overcast